Stations météo

réclame
Mon MeteoGroup
Reus, Espagne (8175): Température de l'air & dewpoint: 17.05.2018 20:00:00 - 23.05.2018 20:00:00 (CEST)Reus, Espagne (8175): Vitesse du vent: 17.05.2018 20:00:00 - 23.05.2018 20:00:00 (CEST)Reus, Espagne (8175): Direction du vent: 17.05.2018 20:00:00 - 23.05.2018 20:00:00 (CEST)Reus, Espagne (8175): reduced air pressure: 17.05.2018 20:00:00 - 23.05.2018 20:00:00 (CEST)Reus, Espagne (8175): visibility: 17.05.2018 20:00:00 - 23.05.2018 20:00:00 (CEST)
Date & Time tt [°C] td [°C] ff [km/h] ff [knt] dd ppp [hPa] vv [km]
23.05.2018 20:00:00 20,3 16,3 13 7 SSW 1017,3 25
23.05.2018 19:00:00 21,8 16,5 13 7 SSW 1016,8 30
23.05.2018 18:00:00 23,2 16,2 11 6 S 1016,6 29
23.05.2018 17:00:00 22,8 16,1 13 7 SSW 1016,8 20
23.05.2018 16:00:00 24,1 16,2 18 10 SSW 1017,1 30
23.05.2018 15:00:00 24,4 15,7 13 7 SE 1017,5 20
23.05.2018 14:00:00 24,2 16,5 15 8 SSE 1017,6 27
23.05.2018 13:00:00 24,1 15,5 15 8 SSW 1017,8 28
23.05.2018 12:00:00 23,1 15,7 15 8 SE 1017,9 14
23.05.2018 11:00:00 23,3 16,1 8 4 S 1017,7 11
23.05.2018 10:00:00 21,8 15,9 2 1 NNW 1017,5 12
23.05.2018 09:00:00 20,2 15,6 0 0 N 1017,6 14
23.05.2018 08:00:00 17,9 14,9 0 0 N 1017,6 8
23.05.2018 07:00:00 16,7 14,6 2 1 N 1017,1 -
23.05.2018 06:00:00 16,7 14,3 8 4 N 1016,7 9
23.05.2018 05:00:00 16,3 14,2 8 4 N 1016,8 9
23.05.2018 04:00:00 16,0 14,3 5 3 NNW 1017,0 6
23.05.2018 03:00:00 16,2 14,5 8 4 N 1016,9 7
23.05.2018 02:00:00 16,8 15,0 4 2 N 1016,9 4,0
23.05.2018 01:00:00 17,5 15,7 0 0 N 1017,1 6
23.05.2018 00:00:00 17,7 16,1 4 2 S 1017,0 4,7
22.05.2018 23:00:00 18,0 16,3 2 1 S 1016,7 8
22.05.2018 22:00:00 18,9 16,6 2 1 SSW 1016,0 9
22.05.2018 21:00:00 19,4 16,7 9 5 SSE 1015,3 12
22.05.2018 20:00:00 21,2 16,3 13 7 SSE 1014,8 30
22.05.2018 19:00:00 23,4 14,7 9 5 SSW 1014,2 30
22.05.2018 18:00:00 23,9 14,3 13 7 SSW 1014,1 29
22.05.2018 17:00:00 23,3 15,9 18 10 SSW 1013,7 27
22.05.2018 16:00:00 23,3 15,5 16 9 SSW 1014,0 30
22.05.2018 15:00:00 23,8 13,6 18 10 SSE 1014,0 30
22.05.2018 14:00:00 23,4 14,3 18 10 SSE 1013,9 30
22.05.2018 13:00:00 23,8 13,7 15 8 SSE 1013,8 22
22.05.2018 12:00:00 23,6 12,4 13 7 ESE 1013,9 30
22.05.2018 11:00:00 22,5 12,6 8 4 SE 1013,7 17
22.05.2018 10:00:00 20,4 13,0 5 3 ESE 1013,8 30
22.05.2018 09:00:00 19,0 12,3 0 0 N 1013,5 29
22.05.2018 08:00:00 16,3 12,5 0 0 N 1013,0 30
22.05.2018 07:00:00 15,6 12,1 0 0 N 1012,4 30
22.05.2018 06:00:00 16,1 11,6 8 4 N 1012,0 30
22.05.2018 05:00:00 14,7 11,4 5 3 NNE 1011,7 30
22.05.2018 04:00:00 14,9 12,5 9 5 NNE 1011,8 23
22.05.2018 03:00:00 15,4 13,5 0 0 N 1011,7 7
22.05.2018 02:00:00 15,8 14,1 5 3 SW 1012,0 7
22.05.2018 01:00:00 16,8 15,0 11 6 W 1012,5 8
22.05.2018 00:00:00 16,6 14,8 8 4 SW 1012,9 7
21.05.2018 23:00:00 17,5 14,9 4 2 SSE 1012,8 11
21.05.2018 22:00:00 18,0 15,3 2 1 W 1012,7 15
21.05.2018 21:00:00 18,3 15,1 8 4 SW 1012,3 23
21.05.2018 20:00:00 20,1 14,6 8 4 S 1011,3 30
21.05.2018 19:00:00 20,0 14,5 11 6 SSW 1011,5 29
21.05.2018 18:00:00 20,8 14,0 8 4 S 1011,1 28
21.05.2018 17:00:00 22,6 12,4 13 7 SE 1011,0 26
21.05.2018 16:00:00 22,9 10,2 13 7 SE 1011,1 30
21.05.2018 15:00:00 23,3 12,0 11 6 SSE 1011,3 22
21.05.2018 14:00:00 21,6 13,1 16 9 SSE 1011,8 25
21.05.2018 13:00:00 22,5 13,4 15 8 SSE 1012,2 16
21.05.2018 12:00:00 22,1 13,9 13 7 SE 1012,4 19
21.05.2018 11:00:00 22,1 14,9 11 6 SE 1012,5 17
21.05.2018 10:00:00 20,6 13,5 4 2 E 1012,7 24
21.05.2018 09:00:00 18,4 13,8 4 2 NE 1012,8 26
21.05.2018 08:00:00 16,1 12,6 8 4 N 1012,7 25
21.05.2018 07:00:00 14,6 12,0 11 6 NNE 1012,5 30
21.05.2018 06:00:00 14,1 12,4 4 2 NNE 1012,4 13
21.05.2018 05:00:00 14,4 12,7 0 0 N 1012,2 10
21.05.2018 04:00:00 15,9 13,4 2 1 N 1012,4 9
21.05.2018 03:00:00 16,5 13,5 4 2 N 1012,8 28
21.05.2018 02:00:00 17,1 14,3 4 2 NNE 1013,3 17
21.05.2018 01:00:00 17,1 14,3 4 2 NNE 1013,8 17
21.05.2018 00:00:00 16,8 13,2 4 2 NE 1014,0 30
20.05.2018 23:00:00 17,5 13,1 2 1 E 1013,9 29
20.05.2018 22:00:00 18,6 13,5 2 1 WSW 1013,5 30
20.05.2018 21:00:00 19,3 13,8 4 2 SW 1013,3 30
20.05.2018 20:00:00 20,6 13,7 8 4 SSE 1013,2 30
20.05.2018 19:00:00 22,6 14,2 9 5 SSE 1012,8 22
20.05.2018 18:00:00 22,9 13,7 13 7 SE 1013,1 30
20.05.2018 17:00:00 23,5 13,7 15 8 S 1013,4 30
20.05.2018 16:00:00 24,2 13,6 16 9 SSE 1013,9 28
20.05.2018 15:00:00 23,1 11,9 8 4 NE 1014,4 30
20.05.2018 14:00:00 23,9 12,4 13 7 SSW 1014,7 30
20.05.2018 13:00:00 24,3 12,7 21 11 SSE 1014,5 30
20.05.2018 12:00:00 24,3 12,4 16 9 SSE 1014,9 23
20.05.2018 11:00:00 24,3 12,3 11 6 SSE 1015,0 30
20.05.2018 10:00:00 23,6 11,7 8 4 ESE 1015,0 30
20.05.2018 09:00:00 22,2 11,6 5 3 N 1015,1 30
20.05.2018 08:00:00 19,9 12,3 2 1 NNE 1014,9 30
20.05.2018 07:00:00 17,5 12,4 11 6 N 1014,8 30
20.05.2018 06:00:00 17,3 13,1 4 2 N 1014,8 30
20.05.2018 05:00:00 17,3 12,9 4 2 N 1015,1 20
20.05.2018 04:00:00 17,8 12,8 0 0 N 1015,2 30
20.05.2018 03:00:00 18,0 12,8 8 4 NNE 1015,6 30
20.05.2018 02:00:00 18,1 12,5 5 3 N 1016,1 30
20.05.2018 01:00:00 18,3 12,6 5 3 WSW 1016,6 30
20.05.2018 00:00:00 17,7 12,7 8 4 W 1016,8 23
19.05.2018 23:00:00 17,6 12,8 4 2 WSW 1016,7 25
19.05.2018 22:00:00 18,0 12,7 5 3 WSW 1016,0 30
19.05.2018 21:00:00 19,6 12,5 4 2 SSW 1015,7 30
19.05.2018 20:00:00 21,8 12,0 9 5 S 1015,3 30
19.05.2018 19:00:00 23,0 11,3 5 3 SSE 1015,2 30
19.05.2018 18:00:00 21,8 11,4 11 6 SSE 1015,6 30
19.05.2018 17:00:00 23,0 11,8 8 4 S 1015,6 25
19.05.2018 16:00:00 25,0 12,0 13 7 S 1015,9 30
19.05.2018 15:00:00 25,9 11,9 11 6 SSW 1016,3 28
19.05.2018 14:00:00 25,3 11,8 16 9 S 1016,5 25
19.05.2018 13:00:00 25,5 12,1 18 10 SSE 1016,6 30
19.05.2018 12:00:00 25,3 11,6 13 7 SSE 1016,7 30
19.05.2018 11:00:00 24,9 12,2 9 5 SE 1016,6 30
19.05.2018 10:00:00 23,2 11,5 2 1 NNW 1016,9 30
19.05.2018 09:00:00 20,6 12,0 2 1 SW 1016,8 20
19.05.2018 08:00:00 16,9 12,0 0 0 N 1016,8 30
19.05.2018 07:00:00 13,9 11,0 0 0 N 1016,5 25
19.05.2018 06:00:00 15,1 11,4 0 0 N 1016,1 26
19.05.2018 05:00:00 15,9 12,0 0 0 N 1016,1 22
19.05.2018 04:00:00 16,5 13,0 0 0 N 1016,3 16
19.05.2018 03:00:00 17,4 12,4 0 0 N 1016,4 19
19.05.2018 02:00:00 17,5 12,5 0 0 N 1016,9 20
19.05.2018 01:00:00 17,8 12,4 0 0 N 1017,3 29
19.05.2018 00:00:00 17,9 12,0 2 1 NNW 1017,4 30
18.05.2018 23:00:00 17,9 11,5 0 0 N 1017,5 21
18.05.2018 22:00:00 17,3 11,1 4 2 SSW 1017,1 30
18.05.2018 21:00:00 18,7 11,1 2 1 S 1016,8 30
18.05.2018 20:00:00 20,2 11,1 4 2 SSE 1016,6 30
18.05.2018 19:00:00 20,8 11,2 11 6 SSE 1016,6 30
18.05.2018 18:00:00 22,0 11,0 13 7 SE 1016,5 30
18.05.2018 17:00:00 22,4 11,8 8 4 SSE 1016,7 30
18.05.2018 16:00:00 21,7 11,9 18 10 SE 1016,8 30
18.05.2018 15:00:00 22,4 11,9 18 10 SE 1017,1 25
18.05.2018 14:00:00 22,7 12,0 18 10 SE 1017,5 30
18.05.2018 13:00:00 22,5 11,9 16 9 SE 1017,7 30
18.05.2018 12:00:00 22,1 12,3 8 4 SE 1017,7 30
18.05.2018 11:00:00 19,7 12,0 8 4 SE 1017,7 30
18.05.2018 10:00:00 19,1 11,3 0 0 N 1017,3 28
18.05.2018 09:00:00 18,0 12,0 0 0 N 1017,0 30
18.05.2018 08:00:00 17,4 12,1 4 2 NE 1016,6 30
18.05.2018 07:00:00 17,1 11,6 8 4 ENE 1016,2 30
18.05.2018 06:00:00 17,3 11,3 8 4 N 1015,6 28
18.05.2018 05:00:00 17,5 11,2 8 4 NNE 1015,7 26
18.05.2018 04:00:00 17,4 11,6 8 4 NNW 1015,9 30
18.05.2018 03:00:00 17,5 12,0 0 0 N 1016,5 30
18.05.2018 02:00:00 17,3 11,9 4 2 SW 1016,9 30
18.05.2018 01:00:00 17,7 10,9 4 2 WNW 1017,4 30
18.05.2018 00:00:00 16,9 10,2 4 2 WSW 1017,4 30
17.05.2018 23:00:00 17,4 10,9 0 0 N 1017,4 30
17.05.2018 22:00:00 17,3 10,6 4 2 S 1016,8 30
17.05.2018 21:00:00 18,4 10,2 4 2 SSE 1016,4 30
17.05.2018 20:00:00 19,9 9,9 5 3 SE 1016,1 30

tt = Température de l'air
td = dewpoint
ff = Vitesse du vent
dd = Direction du vent
ppp = reduced air pressure
vv = visibility

stations d'obs. à proximité